Location: Newark
(48.1500°N, 13.1167°E)
Time: 23:42:06
(UTC+00:00)

XW-2D - Pass Details

Date: 09 December 2021
Orbit: 502 x 522 km, 97.5° (Epoch: 19 January)

Event Time Altitude Azimuth Distance (km) Brightness Sun altitude
Rises 16:45:02 0° 187° (S) 2,619 ? -14.4°
Reaches altitude 10° 16:47:14 10° 196° (SSW) 1,741 ? -14.8°
Maximum altitude 16:50:42 34° 263° (W) 868 ? -15.3°
Drops below altitude 10° 16:54:12 10° 330° (NNW) 1,766 ? -15.9°
Sets 16:56:28 0° 340° (NNW) 2,663 ? -16.3°
